Flag for Ukraine Weather past 2 weeks in Luhansk, Ukraine

Now
68 °F

Clear.


Feels Like: 68 °F
Forecast: 52 / 73 °F
Wind: 3 mph from West

Location: Rostov-Na-Donu

Current Time: Aug 29, 2014 at 10:03:38 PM

Latest Report: Aug 29, 2014 at 9:30 PM


Visibility: 10 mi

Pressure: 30.01 "Hg

Humidity: 60%

Dew point: 54 °F

Location of LuhanskLocation

Historic Weather in Luhansk — Graph

°F

Luhansk temperature yesterday

Maximum temperature yesterday: 88 °F (at 1:30 PM)
Minimum temperature yesterday: 63 °F (at 5:00 AM)
Average temperature yesterday: 76 °F

Past Weeks' High & Low Weather Summary

 TemperatureHumidityPressure
High100 °F (Aug 15, 1:00 PM)89% (Aug 28, 9:00 PM)30.04 "Hg (Aug 28, 9:00 PM)
Low57 °F (Aug 29, 5:30 AM)11% (Aug 25, 1:00 PM)29.56 "Hg (Aug 18, 3:00 PM)
Average76 °F50%29.86 "Hg
* Reported Aug 14 8:00 PM — Aug 29 8:30 PM, Luhansk, Weather by CustomWeather, © 2014

Note: Actual official high and low records may vary slightly from our data, if they occured in-between our weather recording intervals... More about our weather records

Advertising

Luhansk weather history for previous 24 hours

 ConditionsComfort  
Time TempWeatherWind HumidityBarometerVisibility
8:30 PM
Aug 29
68 °FPassing clouds.3 mph64%30.01 "HgN/A
8:00 PM68 °FPassing clouds.8 mph64%30.01 "HgN/A
7:30 PM70 °FSunny.8 mph60%30.01 "Hg10 mi
7:00 PM70 °FPassing clouds.8 mph60%29.98 "HgN/A
6:30 PM72 °FPassing clouds.10 mph57%29.98 "HgN/A
6:00 PM72 °FPassing clouds.10 mph57%29.98 "HgN/A
5:30 PM73 °FScattered clouds.10 mph50%29.98 "HgN/A
5:00 PM73 °FScattered clouds.8 mph47%29.98 "HgN/A
4:30 PM75 °FScattered clouds.8 mph44%29.95 "HgN/A
4:00 PM75 °FScattered clouds.8 mph44%29.95 "HgN/A
3:30 PM75 °FScattered clouds.8 mph44%29.95 "HgN/A
3:00 PM75 °FScattered clouds.10 mph44%29.95 "HgN/A
2:30 PM73 °FScattered clouds.10 mph47%29.98 "HgN/A
2:00 PM75 °FScattered clouds.10 mph44%29.98 "HgN/A
1:30 PM75 °FScattered clouds.8 mph39%29.98 "HgN/A
1:00 PM73 °FScattered clouds.8 mph47%29.98 "HgN/A
12:30 PM75 °FScattered clouds.8 mph41%29.98 "HgN/A
12:00 PM72 °FScattered clouds.8 mph47%29.98 "HgN/A
11:30 AM72 °FScattered clouds.8 mph47%29.98 "HgN/A
11:00 AM68 °FScattered clouds.6 mph53%29.98 "HgN/A
10:30 AM68 °FPassing clouds.8 mph56%29.98 "HgN/A
10:00 AM66 °FPassing clouds.8 mph60%29.98 "HgN/A
9:30 AM64 °FPassing clouds.6 mph64%29.98 "HgN/A
9:00 AM63 °FPassing clouds.8 mph68%29.98 "HgN/A
8:30 AM61 °FScattered clouds.6 mph72%29.98 "HgN/A
8:00 AM59 °FScattered clouds.8 mph77%29.98 "HgN/A
7:30 AM57 °FPassing clouds.8 mph82%29.98 "HgN/A
7:00 AM57 °FPassing clouds.10 mph82%29.95 "HgN/A
6:30 AM57 °FPassing clouds.8 mph82%29.95 "HgN/A
6:00 AM57 °FPassing clouds.6 mph82%29.92 "HgN/A
5:30 AM57 °FPassing clouds.6 mph82%29.92 "HgN/A
5:00 AM59 °FPassing clouds.6 mph82%29.92 "HgN/A
4:30 AM59 °FPassing clouds.6 mph82%29.92 "HgN/A
4:00 AM59 °FPassing clouds.8 mph82%29.89 "HgN/A
3:30 AM61 °FPassing clouds.8 mph77%29.89 "HgN/A
3:00 AM61 °FClear.8 mph77%29.89 "Hg10 mi
2:30 AM63 °FClear.8 mph73%29.86 "Hg10 mi
2:00 AM63 °FClear.8 mph73%29.86 "Hg10 mi
1:30 AM64 °FPassing clouds.8 mph73%29.83 "HgN/A
1:00 AM64 °FPassing clouds.6 mph83%29.83 "HgN/A
12:30 AM66 °FPartly cloudy.13 mph78%29.83 "HgN/A
12:00 AM70 °FPartly cloudy.10 mph69%29.80 "HgN/A
11:30 PM
Aug 28
70 °FPassing clouds.10 mph69%29.80 "HgN/A
11:00 PM72 °FPassing clouds.10 mph69%29.80 "HgN/A
10:30 PM73 °FPartly cloudy.13 mph74%29.77 "HgN/A
10:00 PM73 °FPassing clouds.10 mph83%29.77 "HgN/A
Weather by CustomWeather, © 2014

See weather overviewHow to use our weather pages